Das Wetter in  D-61279 Heinzenberg / Taunus





Wetter Minimum- & Maximum-Werte im Januar 2009

Standort: Heinzenberg / Taunus - Höhe 297 m         8 24' 1" Ost 50 21' 51" Nord
(   3-stündige Aktualisierung    letzte Aktualisierung um 19:04 am 31.01.2009  )


Messgrösse

Minimum

Maximum

Durchschnitt

Temperatur West /
Luftfeuchte West
Anklicken für Monats-Diagramm

-19,7 C

08:37
07.01.2009

55 %

16:11
06.01.2009

7,0 C

21:03
19.01.2009

94 %

10:40
15.01.2009

Temp

-3,1 C

Feuchte

83 %

Temperatur Ost /
Luftfeuchte Ost
Anklicken für Monats-Diagramm

-19,1 C

08:42
07.01.2009

--

--
--

7,0 C

21:08
19.01.2009

--

--
--

-2,9 C

--

Luftdruck Anklicken für Monats-Diagramm

966,6 hPa

14:31
23.01.2009

1036,9 hPa

09:46
11.01.2009

1017,2 hPa

Taupunkt

-22,5 C

08:37
07.01.2009

5,2 C

15:16
23.01.2009

-5,6 C

Windchill
( gefühlte Temperatur )

-19,7 C

08:37
07.01.2009

5,6 C

14:14
21.01.2009

-5,1 C

Windgeschwindigkeit /
Windrichtung
Anklicken für Monats-Diagramm

---

58,9 km/h / O-SO

15:36
23.01.2009

5,4 km/h
W-SW

Helligkeit /
Sonnenschein
Anklicken für Monats-Diagramm
Anklicken für Monats-Diagramm

Sonnenschein:

103:50 Stunden

Max: 7:55 Std am
29.01.2009

61,3 klux

12:58
31.01.2009

14,5 klux

Solarstrahlung Anklicken für Monats-Diagramm

---

419 W/m

12:58
31.01.2009

114 W/m

Regenmenge
    Januar 2009
Anklicken für Monats-Diagramm

Insgesamt 30,7 l/m

in 40:51 Stunden
an 12 Tagen

21,1 l/m

15:21
23.01.2009

Gesamtmenge

30,7 l/m

Regen-Tage
    Januar 2009
Anklicken für Monats-Diagramm

>   0 mm/Tag

>   2 mm/Tag

>   5 mm/Tag

> 10 mm/Tag

> 20 mm/Tag

12 Tage     
3 Tage     
  1 Tag     
  1 Tag     
  1 Tag     

Eisige Tage Januar 2009 / 2008

Tmin ≤ -10C     

7 Tage

/

0 Tage

Eistage Januar 2009 / 2008

Tmax <     0C     

12 Tage

/

2 Tage

Frosttage Januar 2009 / 2008

Tmin ≤     0C     

28 Tage

/

17 Tage

Kalte Tage Januar 2009 / 2008

Tmax <   10C     

31 Tage

/

25 Tage

Warme Tage Januar 2009 / 2008

Tmax ≥   20C     

0 Tage

/

0 Tage

Sommertage Januar 2009 / 2008

Tmax ≥   25C     

0 Tage

/

0 Tage

Heisse Tage Januar 2009 / 2008

Tmax ≥   30C     

0 Tage

/

0 Tage


Monatsdiagramm Januar 2009

Die Kurven zeigen den Durchschnittswert des jeweiligen Tages an


Wetter-Monatsübersicht Januar 2009
Datum
  Temperatur
   Luftdruck
   Wind
  Regen
   Luftfeuchte
   Helligkeit

Sonnen-
schein


Temp.

Min.
Temp.

Max.
Temp.


Luftdruck

Min.
Luftdruck

Max.
Luftdruck

-Geschw.
Haupt-Richtg.

Max.
Wind

Menge /
Dauer


Feuchte

Min.
Feuchte

Max.
Feuchte


Helligkeit

Max.
Helligkeit

1.
Januar
-4,8 C-6,9 C
01:31
-3,4 C
14:41
1029,5 hPa1027,1 hPa
02:31
1031,3 hPa
11:21
3,6 km/h
NW
15,6 km/h
08:26  
---
87 %85 %
13:51
91 %
04:11
4,4 klux10,9 klux
13:06
--- 
2.
Januar
-3,0 C-4,3 C
00:27
-1,8 C
15:02
1028,5 hPa1027,0 hPa
08:37
1031,0 hPa
23:53
0,5 km/h
NO
17,0 km/h
23:18  
---
5 Minuten
88 %86 %
00:02
90 %
17:52
3,7 klux8,3 klux
11:47
--- 
3.
Januar
-5,3 C-9,4 C
09:08
0,3 C
14:28
1028,9 hPa1026,1 hPa
23:09
1031,3 hPa
03:23
0,8 km/h
W-NW
7,6 km/h
14:58  
---
84 %72 %
15:48
90 %
11:18
21,91 klux40,60 klux
12:48
7:05 Std 
4.
Januar
-2,1 C-4,8 C
00:04
-0,8 C
14:09
1021,1 hPa1016,4 hPa
23:50
1026,1 hPa
00:04
11,5 km/h
W
32,6 km/h
13:09  
---
81 %77 %
16:44
85 %
00:04
3,6 klux10,8 klux
13:04
--- 
5.
Januar
-3,0 C-6,5 C
23:56
-1,6 C
13:55
1019,4 hPa1016,4 hPa
00:10
1024,2 hPa
23:56
3,5 km/h
NO
15,1 km/h
23:46  
4,3 l/m
10:15 Stunden
87 %82 %
23:21
91 %
10:10
6,9 klux23,6 klux
13:45
19 Min 
6.
Januar
-9,6 C-16,1 C
23:47
-4,1 C
14:26
1025,0 hPa1023,6 hPa
17:46
1025,8 hPa
07:56
1,5 km/h
SO
10,5 km/h
02:31  
---
69 %55 %
16:11
82 %
00:01
17,3 klux39,3 klux
11:56
4:40 Std 
7.
Januar
-13,0 C-19,7 C
08:37
-7,1 C
16:12
1025,1 hPa1023,3 hPa
16:12
1028,6 hPa
23:38
0,6 km/h
SO
8,3 km/h
15:42  
---
80 %74 %
00:02
85 %
21:12
8,6 klux38,0 klux
10:17
1:35 Std 
8.
Januar
-7,4 C-13,9 C
23:54
-2,1 C
14:43
1031,9 hPa1028,5 hPa
01:08
1033,7 hPa
10:03
0,6 km/h
SO
10,5 km/h
14:13  
---
84 %76 %
16:03
88 %
05:13
15,4 klux39,1 klux
13:38
3:40 Std 
9.
Januar
-11,0 C-15,6 C
09:34
-0,2 C
15:29
1032,4 hPa1029,6 hPa
15:29
1033,9 hPa
09:34
0,9 km/h
SO
14,1 km/h
13:09  
---
79 %62 %
15:29
86 %
11:09
23,5 klux42,6 klux
12:29
7:20 Std 
10.
Januar
-10,9 C-15,8 C
09:00
-1,0 C
15:00
1032,2 hPa1029,7 hPa
15:00
1034,5 hPa
23:51
0,3 km/h
SO
7,3 km/h
00:05  
---
79 %67 %
15:15
85 %
11:20
23,6 klux42,6 klux
12:20
7:20 Std 
11.
Januar
-11,0 C-14,7 C
07:21
-2,4 C
15:06
1034,9 hPa1033,0 hPa
15:06
1036,9 hPa
09:46
0,3 km/h
SO
6,8 km/h
02:46  
---
80 %68 %
15:26
85 %
11:46
22,4 klux40,7 klux
12:56
7:15 Std 
12.
Januar
-11,0 C-16,4 C
09:07
-2,6 C
15:22
1028,9 hPa1022,5 hPa
23:33
1034,7 hPa
00:27
0,1 km/h
SO
7,2 km/h
07:12  
---
80 %71 %
15:32
84 %
11:17
21,7 klux41,6 klux
12:22
7:00 Std 
13.
Januar
-3,8 C-9,0 C
00:08
3,6 C
14:43
1018,5 hPa1015,6 hPa
14:48
1022,5 hPa
00:08
1,0 km/h
W-SW
18,3 km/h
03:38  
---
80 %69 %
14:48
85 %
00:38
17,5 klux56,9 klux
12:03
3:40 Std 
14.
Januar
-5,3 C-9,6 C
05:04
-1,6 C
20:04
1017,5 hPa1016,1 hPa
00:34
1020,6 hPa
23:20
0,0 km/h
SO
4,3 km/h
19:59  
0,3 l/m
1:00 Stunden
88 %83 %
00:04
92 %
23:15
5,5 klux13,1 klux
12:19
--- 
15.
Januar
-1,0 C-5,9 C
23:41
4,7 C
14:45
1022,5 hPa1020,5 hPa
01:25
1025,2 hPa
23:41
2,4 km/h
O-SO
20,6 km/h
13:35  
---
15 Minuten
86 %68 %
15:00
94 %
10:40
21,1 klux52,3 klux
11:30
5:26 Std 
16.
Januar
-2,7 C-7,1 C
02:36
0,4 C
15:16
1024,5 hPa1023,3 hPa
15:16
1025,8 hPa
09:16
5,3 km/h
O-SO
22,3 km/h
06:41  
---
15 Minuten
88 %85 %
15:26
91 %
04:26
11,0 klux29,5 klux
13:36
1:45 Std 
17.
Januar
-0,1 C-3,7 C
00:02
3,0 C
22:48
1020,3 hPa1015,7 hPa
23:18
1023,9 hPa
00:02
4,5 km/h
W-SW
22,6 km/h
19:27  
0,3 l/m
5:55 Stunden
92 %89 %
23:43
94 %
12:12
3,9 klux11,6 klux
12:42
--- 
18.
Januar
3,1 C1,8 C
23:58
4,8 C
08:48
1006,0 hPa999,0 hPa
15:23
1015,8 hPa
00:28
22,9 km/h
W-SW
45,0 km/h
12:18  
3,3 l/m
4:40 Stunden
87 %78 %
08:53
90 %
00:03
5,1 klux16,4 klux
13:03
--- 
19.
Januar
3,6 C0,9 C
04:28
7,0 C
21:03
997,6 hPa990,3 hPa
21:03
1008,6 hPa
01:28
20,4 km/h
W-SW
39,2 km/h
23:14  
1,4 l/m
3:00 Stunden
87 %81 %
23:34
92 %
12:03
4,4 klux23,0 klux
15:43
10 Min 
20.
Januar
2,5 C-1,8 C
23:59
6,3 C
00:04
998,8 hPa991,4 hPa
00:04
1004,9 hPa
23:59
12,0 km/h
W-SW
40,4 km/h
01:14  
---
1:10 Stunden
80 %73 %
01:34
88 %
23:39
13,6 klux45,7 klux
13:39
1:55 Std 
21.
Januar
-0,6 C-3,8 C
07:39
5,6 C
14:14
1008,3 hPa1004,9 hPa
00:04
1012,0 hPa
21:34
0,5 km/h
SO
7,4 km/h
03:44  
---
88 %80 %
15:14
92 %
10:29
17,3 klux59,1 klux
12:35
3:25 Std 
22.
Januar
1,7 C-1,9 C
03:55
5,4 C
14:50
1004,0 hPa995,0 hPa
23:36
1011,1 hPa
02:20
13,5 km/h
S-SO
36,9 km/h
16:00  
---
79 %62 %
15:05
92 %
04:15
21,5 klux48,6 klux
12:05
5:40 Std 
23.
Januar
2,8 C0,8 C
07:56
6,2 C
14:31
979,8 hPa966,6 hPa
14:31
995,1 hPa
00:21
28,6 km/h
O-SO
58,9 km/h
15:36  
21,1 l/m
13:46 Stunden
87 %75 %
00:01
93 %
11:41
3,3 klux14,3 klux
12:46
--- 
24.
Januar
1,7 C-0,4 C
23:12
4,5 C
13:12
990,2 hPa983,7 hPa
00:02
1000,6 hPa
23:52
8,6 km/h
W-SW
35,4 km/h
00:37  
---
15 Minuten
85 %76 %
13:22
93 %
00:07
18,7 klux55,2 klux
12:47
4:00 Std 
25.
Januar
-0,5 C-3,6 C
23:03
5,6 C
14:57
1001,0 hPa998,8 hPa
14:57
1003,0 hPa
08:02
1,3 km/h
O-SO
18,0 km/h
16:12  
---
88 %78 %
16:07
94 %
12:17
27,2 klux48,1 klux
12:17
7:40 Std 
26.
Januar
-1,7 C-5,3 C
08:38
5,1 C
15:28
1003,7 hPa1000,8 hPa
00:08
1009,4 hPa
23:19
1,3 km/h
O-SO
13,6 km/h
14:13  
---
87 %70 %
15:48
94 %
11:58
26,1 klux51,1 klux
11:23
7:30 Std 
27.
Januar
-0,8 C-3,6 C
00:04
1,6 C
14:04
1014,0 hPa1009,2 hPa
01:09
1018,3 hPa
23:55
0,1 km/h
NO
5,3 km/h
16:19  
---
87 %79 %
17:29
91 %
09:39
6,8 klux15,6 klux
12:24
--- 
28.
Januar
0,4 C-1,1 C
23:16
4,2 C
14:40
1019,6 hPa1018,3 hPa
00:00
1021,4 hPa
23:16
1,7 km/h
O-SO
15,3 km/h
18:05  
---
82 %72 %
14:45
90 %
09:45
14,8 klux52,1 klux
12:05
2:10 Std 
29.
Januar
-0,7 C-4,9 C
23:57
4,2 C
15:11
1023,0 hPa1021,4 hPa
00:51
1026,1 hPa
23:57
4,7 km/h
O-SO
23,3 km/h
03:46  
---
15 Minuten
76 %65 %
15:21
84 %
23:22
26,6 klux48,2 klux
12:11
7:55 Std 
30.
Januar
-2,9 C-6,3 C
05:12
3,1 C
15:37
1025,5 hPa1023,0 hPa
16:12
1027,0 hPa
07:42
3,0 km/h
O-SO
18,1 km/h
23:58  
---
83 %71 %
15:37
89 %
07:02
17,3 klux51,8 klux
13:07
4:10 Std 
31.
Januar
-1,0 C-2,7 C
00:03
3,3 C
14:53
1020,8 hPa1017,2 hPa
21:43
1024,8 hPa
00:03
10,1 km/h
O-SO
24,1 km/h
08:38  
---
73 %62 %
15:28
82 %
00:03
14,0 klux61,3 klux
12:58
2:10 Std 



Januar
2009

Temperatur

  

Luftdruck

  

Wind

  

Regen

  

Luftfeuchte

  

Helligkeit

Sonnen-
schein

Min

Max

Min

Max

Max

Max

Min

Max

Max

Max

-3,1 C

-19,7 C

08:37 Uhr
07.01.2009

7,0 C

21:03 Uhr
19.01.2009

1017,2 hPa

966,6 hPa

14:31 Uhr
23.01.2009

1036,9 hPa

09:46 Uhr
11.01.2009

5,4 km/h

W-SW

58,9 km/h

15:36 Uhr
23.01.2009

21,1 l/m

13:46 Stunden
23.01.2009

83 %

55 %

16:11 Uhr
06.01.2009

94 %

10:40 Uhr
15.01.2009

14,5 klux

61,3 klux

12:58 Uhr
31.01.2009

7:55 Std

am
29.01.2009

Gesamt

Gesamt

30,7 l/m

12 Tage
40:51 h

103:50 Std


Wetter-Diagramme Januar 2009     Heinzenberg / Taunus   
TemperaturLuftfeuchte
SolarstrahlungLuftdruck
HelligkeitSonnenschein
RegenmengeRegendauer
Wind-GeschwindigkeitWind-Richtung